| time (UTC) | temp F | wind direction | speed knots | gust knots | rain 1hr in | rain 24hr in | rain mn in | humidity % | barometer mb |
| 20260507134018 | 54 | 0.0 | 0.0 | 0.00 | 0.42 | 0.30 | 77 | 1013.8 | |
| 20260507133017 | 54 | 353 | 0.0 | 0.9 | 0.00 | 0.46 | 0.30 | 77 | 1013.8 |
| 20260507132118 | 54 | 352 | 0.0 | 1.7 | 0.00 | 0.47 | 0.30 | 75 | 1013.4 |
| 20260507132017 | 54 | 358 | 0.0 | 1.7 | 0.00 | 0.47 | 0.30 | 75 | 1013.6 |
| 20260507131039 | 54 | 344 | 0.0 | 2.6 | 0.00 | 0.48 | 0.30 | 75 | 1013.3 |
| 20260507131017 | 54 | 347 | 0.0 | 2.6 | 0.00 | 0.48 | 0.30 | 75 | 1013.5 |
| 20260507130019 | 54 | 6 | 0.0 | 3.5 | 0.00 | 0.50 | 0.30 | 76 | 1013.5 |
| 20260507130016 | 54 | 4 | 0.0 | 1.7 | 0.00 | 0.50 | 0.30 | 76 | 1013.7 |
| 20260507125058 | 54 | 358 | 0.9 | 3.5 | 0.00 | 0.50 | 0.30 | 78 | 1013.3 |
| 20260507125017 | 54 | 0 | 0.9 | 3.5 | 0.00 | 0.50 | 0.30 | 78 | 1013.5 |
| 20260507124019 | 54 | 329 | 0.0 | 2.6 | 0.00 | 0.50 | 0.30 | 81 | 1013.3 |
| 20260507123057 | 54 | 327 | 0.0 | 2.6 | 0.00 | 0.50 | 0.30 | 83 | 1013.5 |
| 20260507123018 | 54 | 327 | 0.0 | 2.6 | 0.00 | 0.50 | 0.30 | 83 | 1013.3 |
| 20260507122019 | 54 | 358 | 0.9 | 3.5 | 0.00 | 0.50 | 0.30 | 85 | 1013.1 |
| 20260507122016 | 54 | 1 | 0.9 | 3.5 | 0.00 | 0.50 | 0.30 | 85 | 1013.3 |
| 20260507121017 | 54 | 353 | 0.9 | 4.3 | 0.00 | 0.50 | 0.30 | 87 | 1013.0 |
| 20260507120018 | 54 | 337 | 0.0 | 1.7 | 0.00 | 0.51 | 0.30 | 88 | 1013.3 |
| 20260507120016 | 54 | 356 | 0.0 | 0.9 | 0.00 | 0.51 | 0.30 | 88 | 1013.5 |
| 20260507115018 | 54 | 330 | 0.9 | 2.6 | 0.00 | 0.51 | 0.30 | 88 | 1013.1 |
| 20260507115016 | 54 | 337 | 0.9 | 2.6 | 0.00 | 0.51 | 0.30 | 88 | 1013.3 |
| 20260507114158 | 54 | 308 | 0.0 | 1.7 | 0.00 | 0.51 | 0.30 | 89 | 1012.8 |
| 20260507114016 | 54 | 318 | 0.0 | 1.7 | 0.00 | 0.51 | 0.30 | 89 | 1013.0 |
| 20260507113038 | 54 | 312 | 0.0 | 0.9 | 0.00 | 0.51 | 0.30 | 88 | 1012.7 |
| 20260507113016 | 54 | 335 | 0.0 | 0.9 | 0.00 | 0.51 | 0.30 | 88 | 1012.9 |
| 20260507112038 | 54 | 349 | 0.0 | 1.7 | 0.00 | 0.51 | 0.30 | 89 | 1012.5 |
| 20260507112036 | 54 | 3 | 0.0 | 1.7 | 0.00 | 0.51 | 0.30 | 89 | 1012.8 |
| 20260507111058 | 54 | 334 | 0.0 | 1.7 | 0.00 | 0.51 | 0.30 | 89 | 1012.7 |
| 20260507111036 | 54 | 343 | 0.0 | 1.7 | 0.00 | 0.51 | 0.30 | 89 | 1012.9 |
| 20260507110018 | 54 | 0.0 | 1.7 | 0.00 | 0.51 | 0.30 | 89 | 1012.5 | |
| 20260507110016 | 54 | 0.0 | 0.0 | 0.00 | 0.51 | 0.30 | 89 | 1012.8 | |
| 20260507105018 | 54 | 332 | 0.0 | 0.9 | 0.01 | 0.51 | 0.30 | 89 | 1012.6 |
| 20260507105016 | 54 | 345 | 0.0 | 0.9 | 0.01 | 0.51 | 0.30 | 89 | 1012.8 |
| 20260507104018 | 54 | 342 | 0.0 | 1.7 | 0.01 | 0.51 | 0.30 | 89 | 1012.3 |
| 20260507104016 | 54 | 356 | 0.0 | 0.9 | 0.01 | 0.51 | 0.30 | 89 | 1012.5 |
| 20260507103036 | 54 | 352 | 0.0 | 0.9 | 0.01 | 0.51 | 0.30 | 89 | 1012.3 |
| 20260507103016 | 54 | 359 | 0.0 | 0.9 | 0.01 | 0.51 | 0.30 | 89 | 1012.5 |
| 20260507102138 | 54 | 351 | 0.0 | 1.7 | 0.01 | 0.51 | 0.30 | 89 | 1012.2 |
| 20260507102017 | 54 | 353 | 0.0 | 1.7 | 0.01 | 0.51 | 0.30 | 89 | 1012.4 |
| 20260507101017 | 54 | 0.0 | 0.0 | 0.01 | 0.51 | 0.30 | 89 | 1012.4 | |
| 20260507100038 | 54 | 0.0 | 0.0 | 0.01 | 0.51 | 0.30 | 89 | 1012.2 | |
| 20260507100016 | 54 | 0.0 | 0.0 | 0.01 | 0.51 | 0.30 | 89 | 1012.4 | |
| 20260507095159 | 54 | 0.0 | 0.0 | 0.00 | 0.50 | 0.29 | 89 | 1012.1 | |
| 20260507095016 | 54 | 0.0 | 0.0 | 0.00 | 0.50 | 0.29 | 89 | 1012.3 | |
| 20260507094018 | 54 | 0.0 | 0.0 | 0.00 | 0.50 | 0.29 | 89 | 1012.1 | |
| 20260507094016 | 54 | 0.0 | 0.0 | 0.00 | 0.50 | 0.29 | 89 | 1012.3 | |
| 20260507093016 | 54 | 0.0 | 0.0 | 0.00 | 0.50 | 0.29 | 89 | 1012.3 | |
| 20260507092038 | 54 | 0.0 | 0.0 | 0.00 | 0.50 | 0.29 | 89 | 1011.8 | |
| 20260507092016 | 54 | 0.0 | 0.0 | 0.00 | 0.50 | 0.29 | 89 | 1012.0 | |
| 20260507091018 | 54 | 322 | 0.0 | 0.9 | 0.00 | 0.50 | 0.29 | 89 | 1011.9 |
| 20260507090037 | 54 | 327 | 0.0 | 1.7 | 0.00 | 0.50 | 0.29 | 89 | 1012.1 |
| 20260507090018 | 54 | 311 | 0.0 | 1.7 | 0.00 | 0.50 | 0.29 | 89 | 1011.9 |
| 20260507085038 | 54 | 0.0 | 0.0 | 0.00 | 0.50 | 0.29 | 89 | 1011.9 | |
| 20260507085017 | 54 | 0.0 | 0.0 | 0.00 | 0.50 | 0.29 | 89 | 1012.1 | |
| 20260507084036 | 54 | 352 | 0.0 | 0.9 | 0.00 | 0.50 | 0.29 | 89 | 1011.7 |
| 20260507084017 | 54 | 355 | 0.0 | 0.9 | 0.00 | 0.50 | 0.29 | 89 | 1011.9 |
| 20260507083018 | 54 | 352 | 0.0 | 0.9 | 0.00 | 0.50 | 0.29 | 88 | 1011.9 |
| 20260507082158 | 54 | 309 | 0.0 | 1.7 | 0.00 | 0.50 | 0.29 | 89 | 1011.8 |
| 20260507082016 | 54 | 325 | 0.0 | 0.9 | 0.00 | 0.50 | 0.29 | 89 | 1012.0 |
| 20260507081038 | 55 | 309 | 0.0 | 1.7 | 0.00 | 0.50 | 0.29 | 89 | 1011.6 |
| 20260507081016 | 55 | 315 | 0.0 | 1.7 | 0.00 | 0.50 | 0.29 | 89 | 1011.8 |
| 20260507080158 | 55 | 320 | 0.0 | 1.7 | 0.00 | 0.50 | 0.29 | 89 | 1011.3 |
| 20260507080016 | 55 | 335 | 0.0 | 1.7 | 0.00 | 0.50 | 0.29 | 89 | 1011.5 |
| 20260507075136 | 55 | 332 | 0.9 | 1.7 | 0.00 | 0.50 | 0.29 | 89 | 1011.4 |
| 20260507075018 | 55 | 321 | 0.9 | 1.7 | 0.00 | 0.50 | 0.29 | 89 | 1011.2 |
| 20260507074036 | 55 | 305 | 0.9 | 2.6 | 0.00 | 0.50 | 0.29 | 89 | 1011.3 |
| 20260507074016 | 55 | 314 | 0.9 | 1.7 | 0.00 | 0.50 | 0.29 | 89 | 1011.5 |
| 20260507073036 | 55 | 347 | 0.9 | 3.5 | 0.00 | 0.50 | 0.29 | 89 | 1011.2 |
| 20260507073015 | 55 | 344 | 0.9 | 3.5 | 0.00 | 0.50 | 0.29 | 89 | 1011.0 |
| 20260507072017 | 55 | 352 | 0.9 | 2.6 | 0.00 | 0.50 | 0.29 | 89 | 1011.2 |
| 20260507072015 | 55 | 353 | 0.9 | 2.6 | 0.00 | 0.50 | 0.29 | 89 | 1011.0 |
| 20260507071017 | 56 | 336 | 0.9 | 2.6 | 0.00 | 0.50 | 0.29 | 89 | 1011.1 |
| 20260507071015 | 56 | 333 | 0.9 | 3.5 | 0.00 | 0.50 | 0.29 | 89 | 1010.9 |
| 20260507070018 | 56 | 338 | 0.9 | 1.7 | 0.00 | 0.50 | 0.29 | 89 | 1011.0 |
| 20260507070015 | 56 | 337 | 0.9 | 1.7 | 0.00 | 0.50 | 0.29 | 89 | 1010.8 |
| 20260507065016 | 56 | 353 | 0.9 | 2.6 | 0.00 | 0.50 | 0.29 | 88 | 1011.0 |
| 20260507064016 | 56 | 320 | 1.7 | 4.3 | 0.00 | 0.50 | 0.29 | 89 | 1011.2 |
| 20260507063018 | 56 | 3 | 0.9 | 4.3 | 0.01 | 0.50 | 0.29 | 89 | 1011.1 |
| 20260507063016 | 56 | 1 | 0.9 | 4.3 | 0.01 | 0.50 | 0.29 | 89 | 1010.9 |
| 20260507062035 | 57 | 321 | 0.9 | 3.5 | 0.02 | 0.50 | 0.29 | 89 | 1011.0 |
| 20260507062020 | 57 | 323 | 0.9 | 3.5 | 0.02 | 0.50 | 0.29 | 89 | 1011.2 |
| 20260507061037 | 57 | 329 | 1.7 | 6.1 | 0.03 | 0.50 | 0.29 | 89 | 1011.0 |
| 20260507061015 | 57 | 328 | 1.7 | 7.8 | 0.03 | 0.50 | 0.29 | 89 | 1010.8 |
| 20260507060056 | 58 | 334 | 0.9 | 3.5 | 0.03 | 0.50 | 0.29 | 89 | 1010.4 |
| 20260507060017 | 58 | 336 | 0.9 | 2.6 | 0.03 | 0.50 | 0.29 | 89 | 1010.7 |
| 20260507055019 | 58 | 4 | 0.9 | 3.5 | 0.04 | 0.50 | 0.29 | 88 | 1010.6 |
| 20260507055016 | 58 | 4 | 0.9 | 3.5 | 0.04 | 0.50 | 0.29 | 88 | 1010.4 |
| 20260507054056 | 58 | 346 | 0.0 | 1.7 | 0.06 | 0.50 | 0.29 | 88 | 1011.1 |
| 20260507054015 | 58 | 339 | 0.0 | 1.7 | 0.06 | 0.50 | 0.29 | 88 | 1010.9 |
| 20260507053018 | 58 | 356 | 0.0 | 0.9 | 0.09 | 0.49 | 0.28 | 87 | 1011.3 |
| 20260507053015 | 58 | 332 | 0.0 | 1.7 | 0.09 | 0.49 | 0.28 | 87 | 1011.1 |
| 20260507052018 | 59 | 46 | 0.9 | 1.7 | 0.24 | 0.48 | 0.27 | 86 | 1011.0 |
| 20260507051038 | 59 | 355 | 0.0 | 0.9 | 0.26 | 0.47 | 0.26 | 85 | 1011.1 |
| 20260507051015 | 59 | 349 | 0.0 | 1.7 | 0.26 | 0.47 | 0.26 | 85 | 1010.9 |
| 20260507050116 | 59 | 358 | 0.0 | 2.6 | 0.26 | 0.47 | 0.26 | 84 | 1010.7 |
| 20260507050018 | 59 | 359 | 0.0 | 2.6 | 0.26 | 0.47 | 0.26 | 84 | 1010.9 |
| 20260507045018 | 60 | 0.0 | 0.0 | 0.25 | 0.46 | 0.25 | 83 | 1011.0 | |
| 20260507045015 | 60 | 0.0 | 1.7 | 0.25 | 0.46 | 0.25 | 83 | 1010.8 | |
| 20260507044017 | 61 | 355 | 0.9 | 3.5 | 0.23 | 0.44 | 0.23 | 82 | 1011.1 |
| 20260507044015 | 61 | 354 | 0.9 | 3.5 | 0.23 | 0.44 | 0.23 | 82 | 1010.9 |
| 20260507043037 | 62 | 347 | 0.9 | 3.5 | 0.19 | 0.40 | 0.19 | 80 | 1011.4 |
| 20260507043018 | 62 | 347 | 0.9 | 4.3 | 0.19 | 0.40 | 0.19 | 80 | 1011.2 |
| 20260507042118 | 62 | 342 | 0.9 | 2.6 | 0.03 | 0.24 | 0.03 | 77 | 1010.9 |
| 20260507042016 | 62 | 345 | 0.9 | 2.6 | 0.03 | 0.24 | 0.03 | 77 | 1011.2 |
| 20260507041018 | 63 | 352 | 1.7 | 4.3 | 0.00 | 0.21 | 0.00 | 74 | 1010.8 |
| 20260507040117 | 63 | 356 | 1.7 | 7.8 | 0.00 | 0.21 | 0.00 | 72 | 1010.6 |
| 20260507040019 | 63 | 357 | 2.6 | 7.8 | 0.00 | 0.21 | 0.00 | 72 | 1010.9 |
| 20260507035038 | 64 | 343 | 2.6 | 8.7 | 0.00 | 0.21 | 0.21 | 72 | 1010.5 |
| 20260507035017 | 64 | 342 | 2.6 | 8.7 | 0.00 | 0.21 | 0.21 | 72 | 1010.7 |
| 20260507034037 | 65 | 341 | 2.6 | 7.0 | 0.00 | 0.21 | 0.21 | 74 | 1010.5 |
| 20260507034019 | 65 | 343 | 2.6 | 7.0 | 0.00 | 0.21 | 0.21 | 74 | 1010.7 |
| 20260507033058 | 65 | 336 | 0.9 | 6.1 | 0.00 | 0.21 | 0.21 | 77 | 1010.6 |
| 20260507033038 | 65 | 340 | 0.9 | 6.1 | 0.00 | 0.21 | 0.21 | 77 | 1010.9 |
| 20260507032038 | 66 | 332 | 1.7 | 4.3 | 0.00 | 0.21 | 0.21 | 79 | 1010.4 |
| 20260507031018 | 66 | 2 | 1.7 | 7.0 | 0.00 | 0.21 | 0.21 | 79 | 1010.3 |
| 20260507030018 | 67 | 10 | 1.7 | 4.3 | 0.00 | 0.21 | 0.21 | 80 | 1009.5 |
| 20260507025138 | 67 | 354 | 0.0 | 2.6 | 0.00 | 0.21 | 0.21 | 79 | 1010.0 |
| 20260507025016 | 67 | 355 | 0.0 | 2.6 | 0.00 | 0.21 | 0.21 | 79 | 1010.3 |
| 20260507024057 | 67 | 326 | 0.9 | 2.6 | 0.00 | 0.21 | 0.21 | 80 | 1009.8 |
| 20260507024017 | 67 | 329 | 0.9 | 2.6 | 0.00 | 0.21 | 0.21 | 80 | 1010.1 |
| 20260507023018 | 67 | 309 | 0.0 | 2.6 | 0.00 | 0.21 | 0.21 | 81 | 1009.7 |
| 20260507022037 | 68 | 224 | 0.9 | 3.5 | 0.00 | 0.21 | 0.21 | 81 | 1009.6 |
| 20260507022018 | 68 | 228 | 0.9 | 3.5 | 0.00 | 0.21 | 0.21 | 81 | 1009.8 |
| 20260507021017 | 68 | 332 | 0.9 | 2.6 | 0.00 | 0.21 | 0.21 | 81 | 1009.1 |
| 20260507021015 | 68 | 335 | 0.9 | 2.6 | 0.00 | 0.21 | 0.21 | 81 | 1009.4 |
| 20260507020018 | 69 | 328 | 0.0 | 1.7 | 0.00 | 0.21 | 0.21 | 80 | 1009.8 |
| 20260507015018 | 69 | 210 | 0.9 | 3.5 | 0.00 | 0.21 | 0.21 | 79 | 1009.6 |
| 20260507015016 | 69 | 213 | 0.9 | 3.5 | 0.00 | 0.21 | 0.21 | 79 | 1009.9 |
| 20260507014037 | 69 | 213 | 0.0 | 2.6 | 0.00 | 0.21 | 0.21 | 78 | 1009.5 |
| 20260507014017 | 69 | 218 | 0.0 | 1.7 | 0.00 | 0.21 | 0.21 | 78 | 1009.8 |
| 20260507013017 | 69 | 209 | 0.0 | 2.6 | 0.00 | 0.21 | 0.21 | 78 | 1009.6 |
| 20260507013015 | 69 | 217 | 0.0 | 2.6 | 0.00 | 0.21 | 0.21 | 78 | 1010.0 |
| 20260507012117 | 69 | 198 | 0.0 | 1.7 | 0.00 | 0.21 | 0.21 | 77 | 1009.6 |
| 20260507012019 | 69 | 201 | 0.0 | 1.7 | 0.00 | 0.21 | 0.21 | 77 | 1009.9 |
| 20260507010017 | 69 | 203 | 0.9 | 2.6 | 0.00 | 0.21 | 0.21 | 77 | 1010.2 |
| 20260507005036 | 69 | 339 | 0.0 | 0.9 | 0.00 | 0.21 | 0.21 | 77 | 1010.0 |
| 20260507005017 | 69 | 205 | 0.0 | 0.9 | 0.00 | 0.21 | 0.21 | 77 | 1009.7 |
| 20260507004017 | 69 | 205 | 0.0 | 3.5 | 0.00 | 0.21 | 0.21 | 76 | 1009.4 |
| 20260507003117 | 70 | 189 | 0.0 | 0.9 | 0.00 | 0.21 | 0.21 | 76 | 1009.4 |
| 20260507003018 | 70 | 275 | 0.0 | 0.9 | 0.00 | 0.21 | 0.21 | 76 | 1009.7 |
| 20260507002018 | 70 | 208 | 0.0 | 2.6 | 0.00 | 0.21 | 0.21 | 76 | 1009.8 |
| 20260507001018 | 70 | 201 | 0.9 | 4.3 | 0.00 | 0.21 | 0.21 | 75 | 1009.7 |
| 20260507000137 | 70 | 188 | 0.9 | 3.5 | 0.00 | 0.21 | 0.21 | 76 | 1008.9 |
| 20260507000018 | 70 | 189 | 0.9 | 2.6 | 0.00 | 0.21 | 0.21 | 76 | 1009.3 |
| 20260506235137 | 70 | 232 | 0.9 | 4.3 | 0.00 | 0.21 | 0.21 | 75 | 1009.0 |
| 20260506235018 | 70 | 240 | 0.9 | 2.6 | 0.00 | 0.21 | 0.21 | 75 | 1009.4 |
| 20260506234018 | 70 | 239 | 0.9 | 2.6 | 0.00 | 0.21 | 0.21 | 75 | 1009.1 |
| 20260506233037 | 70 | 210 | 0.9 | 2.6 | 0.00 | 0.21 | 0.21 | 75 | 1008.7 |
| 20260506233018 | 70 | 213 | 0.9 | 2.6 | 0.00 | 0.21 | 0.21 | 75 | 1009.0 |
| 20260506232018 | 70 | 218 | 0.9 | 3.5 | 0.00 | 0.21 | 0.21 | 75 | 1009.1 |
| 20260506231058 | 70 | 217 | 0.9 | 4.3 | 0.00 | 0.21 | 0.21 | 74 | 1008.7 |
| 20260506231018 | 70 | 219 | 0.9 | 4.3 | 0.00 | 0.21 | 0.21 | 74 | 1009.1 |
| 20260506230018 | 70 | 218 | 0.9 | 2.6 | 0.00 | 0.21 | 0.21 | 74 | 1009.0 |
| 20260506225058 | 71 | 209 | 1.7 | 5.2 | 0.00 | 0.21 | 0.21 | 74 | 1008.7 |
| 20260506225036 | 71 | 210 | 1.7 | 5.2 | 0.00 | 0.21 | 0.21 | 74 | 1009.0 |
| 20260506224037 | 71 | 211 | 1.7 | 7.0 | 0.00 | 0.21 | 0.21 | 74 | 1008.6 |
| 20260506224016 | 71 | 211 | 1.7 | 7.0 | 0.00 | 0.21 | 0.21 | 74 | 1009.0 |
| 20260506223117 | 70 | 205 | 0.9 | 4.3 | 0.00 | 0.21 | 0.21 | 74 | 1008.7 |
| 20260506223037 | 70 | 209 | 0.9 | 4.3 | 0.00 | 0.21 | 0.21 | 74 | 1009.1 |
| 20260506222038 | 70 | 208 | 0.9 | 3.5 | 0.00 | 0.21 | 0.21 | 74 | 1009.2 |
| 20260506222017 | 70 | 202 | 0.9 | 3.5 | 0.00 | 0.21 | 0.21 | 74 | 1008.8 |
| 20260506221037 | 70 | 193 | 1.7 | 5.2 | 0.00 | 0.21 | 0.21 | 74 | 1008.8 |
| 20260506221017 | 70 | 193 | 1.7 | 5.2 | 0.00 | 0.21 | 0.21 | 74 | 1009.1 |
| 20260506220019 | 70 | 206 | 2.6 | 7.8 | 0.00 | 0.21 | 0.21 | 74 | 1009.2 |
| 20260506215037 | 70 | 220 | 1.7 | 5.2 | 0.00 | 0.21 | 0.21 | 74 | 1008.7 |
| 20260506215017 | 70 | 221 | 1.7 | 5.2 | 0.00 | 0.21 | 0.21 | 74 | 1009.1 |
| 20260506214017 | 70 | 206 | 3.5 | 7.8 | 0.00 | 0.21 | 0.21 | 74 | 1009.2 |
| 20260506213038 | 70 | 221 | 1.7 | 7.0 | 0.00 | 0.21 | 0.21 | 74 | 1008.8 |
| 20260506213017 | 70 | 222 | 1.7 | 6.1 | 0.00 | 0.21 | 0.21 | 74 | 1009.2 |
| 20260506212017 | 70 | 225 | 2.6 | 9.6 | 0.00 | 0.21 | 0.21 | 74 | 1009.1 |
| 20260506211037 | 70 | 229 | 1.7 | 7.8 | 0.00 | 0.21 | 0.21 | 74 | 1008.7 |
| 20260506211017 | 70 | 228 | 1.7 | 7.0 | 0.00 | 0.21 | 0.21 | 74 | 1009.0 |
| 20260506210117 | 70 | 207 | 3.5 | 9.6 | 0.00 | 0.21 | 0.21 | 74 | 1008.6 |
| 20260506210017 | 70 | 208 | 3.5 | 9.6 | 0.00 | 0.21 | 0.21 | 74 | 1009.0 |
| 20260506205057 | 70 | 198 | 2.6 | 9.6 | 0.00 | 0.21 | 0.21 | 74 | 1008.6 |
| 20260506205016 | 70 | 198 | 2.6 | 9.6 | 0.00 | 0.21 | 0.21 | 74 | 1008.9 |
| 20260506204158 | 70 | 205 | 2.6 | 8.7 | 0.00 | 0.21 | 0.21 | 74 | 1008.6 |
| 20260506204037 | 70 | 205 | 2.6 | 5.2 | 0.00 | 0.21 | 0.21 | 74 | 1009.0 |
| 20260506203036 | 70 | 193 | 2.6 | 7.0 | 0.00 | 0.21 | 0.21 | 74 | 1008.6 |
| 20260506203016 | 70 | 195 | 2.6 | 6.1 | 0.00 | 0.21 | 0.21 | 74 | 1009.0 |
| 20260506202037 | 70 | 208 | 1.7 | 6.1 | 0.00 | 0.21 | 0.21 | 74 | 1008.9 |
| 20260506202017 | 70 | 207 | 2.6 | 7.8 | 0.00 | 0.21 | 0.21 | 74 | 1008.5 |
| 20260506201017 | 69 | 217 | 1.7 | 7.8 | 0.00 | 0.21 | 0.21 | 75 | 1008.7 |
| 20260506201015 | 69 | 216 | 1.7 | 7.8 | 0.00 | 0.21 | 0.21 | 75 | 1009.0 |
| 20260506200117 | 69 | 223 | 1.7 | 9.6 | 0.00 | 0.21 | 0.21 | 76 | 1008.6 |
| 20260506200017 | 69 | 228 | 1.7 | 9.6 | 0.00 | 0.21 | 0.21 | 76 | 1008.9 |
| 20260506195137 | 69 | 209 | 3.5 | 10.4 | 0.00 | 0.21 | 0.21 | 76 | 1008.7 |
| 20260506195037 | 69 | 208 | 3.5 | 10.4 | 0.00 | 0.21 | 0.21 | 76 | 1009.1 |
| 20260506194117 | 68 | 209 | 3.5 | 8.7 | 0.00 | 0.21 | 0.21 | 76 | 1008.8 |
| 20260506194017 | 68 | 209 | 3.5 | 7.8 | 0.00 | 0.21 | 0.21 | 76 | 1009.1 |
| 20260506193117 | 68 | 219 | 2.6 | 7.8 | 0.00 | 0.21 | 0.21 | 77 | 1008.8 |
| 20260506193016 | 68 | 221 | 2.6 | 7.8 | 0.00 | 0.21 | 0.21 | 77 | 1009.2 |
| 20260506192019 | 68 | 204 | 2.6 | 7.0 | 0.00 | 0.21 | 0.21 | 77 | 1009.4 |
| 20260506192017 | 68 | 198 | 2.6 | 7.0 | 0.00 | 0.21 | 0.21 | 77 | 1009.0 |
| 20260506191017 | 68 | 195 | 2.6 | 7.0 | 0.00 | 0.21 | 0.21 | 77 | 1009.7 |
| 20260506190037 | 68 | 216 | 1.7 | 7.0 | 0.00 | 0.21 | 0.21 | 77 | 1009.7 |
| 20260506190018 | 68 | 218 | 1.7 | 7.8 | 0.00 | 0.21 | 0.21 | 77 | 1009.4 |
| 20260506185037 | 68 | 223 | 1.7 | 6.1 | 0.00 | 0.21 | 0.21 | 78 | 1009.5 |
| 20260506185017 | 68 | 227 | 1.7 | 6.1 | 0.00 | 0.21 | 0.21 | 78 | 1009.9 |
| 20260506184037 | 67 | 212 | 1.7 | 5.2 | 0.00 | 0.21 | 0.21 | 78 | 1009.4 |
| 20260506184018 | 67 | 216 | 1.7 | 5.2 | 0.00 | 0.21 | 0.21 | 78 | 1009.8 |
| 20260506183018 | 67 | 188 | 3.5 | 9.6 | 0.00 | 0.21 | 0.21 | 78 | 1009.8 |
| 20260506182057 | 67 | 212 | 3.5 | 9.6 | 0.00 | 0.21 | 0.21 | 78 | 1009.4 |
| 20260506182037 | 67 | 213 | 3.5 | 6.1 | 0.00 | 0.21 | 0.21 | 78 | 1009.8 |
| 20260506181017 | 67 | 222 | 2.6 | 7.8 | 0.00 | 0.21 | 0.21 | 78 | 1009.6 |
| 20260506180018 | 67 | 220 | 2.6 | 7.0 | 0.00 | 0.21 | 0.21 | 78 | 1010.1 |
| 20260506175017 | 66 | 199 | 3.5 | 7.8 | 0.00 | 0.21 | 0.21 | 79 | 1009.7 |
| 20260506174017 | 66 | 200 | 3.5 | 8.7 | 0.00 | 0.21 | 0.21 | 80 | 1010.1 |
| 20260506173057 | 65 | 216 | 3.5 | 7.8 | 0.00 | 0.21 | 0.21 | 81 | 1009.9 |
| 20260506173017 | 65 | 216 | 3.5 | 7.8 | 0.00 | 0.21 | 0.21 | 81 | 1010.2 |
| 20260506172056 | 65 | 201 | 3.5 | 10.4 | 0.00 | 0.21 | 0.21 | 81 | 1010.0 |
| 20260506172017 | 65 | 200 | 3.5 | 10.4 | 0.00 | 0.21 | 0.21 | 81 | 1010.4 |
| 20260506171017 | 65 | 196 | 2.6 | 7.8 | 0.00 | 0.21 | 0.21 | 83 | 1010.0 |
| 20260506170117 | 64 | 202 | 3.5 | 8.7 | 0.00 | 0.21 | 0.21 | 85 | 1010.2 |
| 20260506170017 | 64 | 202 | 3.5 | 8.7 | 0.00 | 0.21 | 0.21 | 85 | 1010.6 |
| 20260506165017 | 64 | 201 | 4.3 | 10.4 | 0.00 | 0.21 | 0.21 | 86 | 1010.1 |
| 20260506164037 | 64 | 223 | 3.5 | 11.3 | 0.00 | 0.21 | 0.21 | 88 | 1010.6 |
| 20260506163017 | 63 | 197 | 2.6 | 10.4 | 0.00 | 0.21 | 0.21 | 89 | 1010.3 |
| 20260506162017 | 63 | 203 | 2.6 | 7.0 | 0.00 | 0.21 | 0.21 | 89 | 1010.7 |
| 20260506161037 | 62 | 216 | 2.6 | 8.7 | 0.00 | 0.21 | 0.21 | 89 | 1010.4 |
| 20260506161017 | 62 | 213 | 2.6 | 8.7 | 0.00 | 0.21 | 0.21 | 89 | 1010.7 |
| 20260506160017 | 62 | 186 | 3.5 | 8.7 | 0.00 | 0.21 | 0.21 | 90 | 1010.7 |
| 20260506155037 | 62 | 185 | 1.7 | 6.1 | 0.01 | 0.21 | 0.21 | 90 | 1010.7 |
| 20260506155016 | 62 | 187 | 1.7 | 6.1 | 0.01 | 0.21 | 0.21 | 90 | 1011.0 |
| 20260506154017 | 62 | 216 | 1.7 | 5.2 | 0.03 | 0.21 | 0.21 | 90 | 1010.5 |
| 20260506153018 | 62 | 195 | 1.7 | 5.2 | 0.06 | 0.21 | 0.21 | 90 | 1011.0 |
| 20260506152037 | 61 | 177 | 0.9 | 5.2 | 0.07 | 0.21 | 0.21 | 90 | 1010.5 |
| 20260506152016 | 61 | 172 | 0.9 | 5.2 | 0.07 | 0.21 | 0.21 | 90 | 1010.9 |
| 20260506151117 | 61 | 225 | 0.9 | 3.5 | 0.07 | 0.21 | 0.21 | 89 | 1010.8 |
| 20260506151018 | 61 | 229 | 0.9 | 3.5 | 0.07 | 0.21 | 0.21 | 89 | 1011.1 |
| 20260506150017 | 61 | 168 | 1.7 | 5.2 | 0.08 | 0.21 | 0.21 | 89 | 1010.9 |
| 20260506145017 | 61 | 140 | 1.7 | 6.1 | 0.09 | 0.20 | 0.20 | 88 | 1011.2 |
| 20260506144018 | 61 | 211 | 0.9 | 4.3 | 0.09 | 0.18 | 0.18 | 88 | 1011.5 |
| 20260506143018 | 61 | 177 | 0.9 | 3.5 | 0.10 | 0.15 | 0.15 | 88 | 1011.5 |
| 20260506143016 | 61 | 185 | 0.9 | 4.3 | 0.10 | 0.15 | 0.15 | 88 | 1011.1 |
| 20260506142016 | 61 | 115 | 0.9 | 3.5 | 0.10 | 0.14 | 0.14 | 87 | 1011.0 |
| 20260506141037 | 61 | 192 | 0.9 | 4.3 | 0.11 | 0.14 | 0.14 | 87 | 1010.9 |
| 20260506141017 | 61 | 196 | 0.9 | 4.3 | 0.11 | 0.14 | 0.14 | 87 | 1011.2 |
| 20260506140017 | 62 | 103 | 0.9 | 4.3 | 0.12 | 0.13 | 0.13 | 86 | 1011.0 |
| 20260506135016 | 62 | 77 | 0.0 | 3.5 | 0.10 | 0.11 | 0.11 | 86 | 1011.6 |